Powrót do katalogu

STARLINK-32175

AktywnyŁącznośćVLEO
NORAD 60339·PAYLOAD·🇺🇸 United States

Wystrzelony Aug 2, 2024 z Cape Canaveral Space Force Station

Loading…

Następne Przeloty (najbliższe 24 godziny)

TLE

ŚwieżeSource: CelesTrak SupGP

Epoka: Sep 14, 2026, 21:15 UTC

1 60339C 24136L   26257.88590278  .00044526  00000+0  13160-2 0  2576
2 60339  53.1575 275.6758 0001215  82.3853  81.2231 15.34358410    19

Śledź STARLINK-32175 w czasie rzeczywistym z AllMySat

Download on the App Store